Regional Weather Roundup
Issued by NWS San Diego, CA

Home | Current Version | Previous Version | Text Only | Print | Product List | Glossary On
Versions: 1 2 3 4 5 6 7 8 9 10 11 12 13 14 15 16 17 18 19 20 21 22 23 24 25 26 27
000
ASUS46 KSGX 230111
RWRSGX

SAN DIEGO HOURLY WEATHER ROUNDUP
NATIONAL WEATHER SERVICE SAN DIEGO CA
500 PM PST WED FEB 22 2017

NOTE: "FAIR" INDICATES FEW OR NO CLOUDS BELOW 12,000 FEET WITH NO
SIGNIFICANT WEATHER AND/OR OBSTRUCTIONS TO VISIBILITY.

CAZ042-043-060-061-PZZ750-775-230200-

GREATER SAN DIEGO AREA

CITY           SKY/WX    TMP DP  RH WIND       PRES   REMARKS
SAN DIEGO AP   MOCLDY    60  45  57 W12       30.09F
NATIONAL CITY    N/A     59  48  66 NW5       30.08S
CHULA VISTA      N/A     59  48  67 W5        30.01R
IMPERIAL BEACH MOCLDY    60  46  59 W15       30.08F
BROWN FIELD    PTCLDY    55  46  71 W8        30.07S
MIRAMAR MCAS   MOCLDY    59  45  59 W12       30.07S
MONTGOMERY FLD MOCLDY    57  43  59 W13       30.07S

$$

NORTH SAN DIEGO COUNTY

CITY           SKY/WX    TMP DP  RH WIND       PRES   REMARKS
CAMP PENDLETON PTCLDY    57  47  69 W5        30.06S
OCEANSIDE AP   MOCLDY    59  49  69 W9        30.05F
OCEANSIDE HBR    N/A     58  50  74 NW8       30.09S
VISTA            N/A     56  48  72 W1        30.05S
CARLSBAD       PTCLDY    57  47  69 W10       30.06R
DEL MAR          N/A     57  49  74 NW3       30.09F
LA JOLLA SCRIP   N/A     56  48  72 SW2       30.07F
FALLBROOK        N/A     56  49  76 SW3       30.04S
ESCONDIDO        N/A     56  45  65 SW6       30.08S
SAN MARCOS       N/A     56  47  71 NW7       30.08S
POWAY            N/A     57  45  64 SW3       30.09S

$$

EAST SAN DIEGO COUNTY

CITY           SKY/WX    TMP DP  RH WIND       PRES   REMARKS
RAMONA         PTCLDY    53  43  68 W12       30.05S
SANTEE LAKES     N/A     57  46  66 W3        30.06F
LA MESA          N/A     56  44  63 W8        30.01S
JAMUL            N/A     54  45  71 CALM      30.07S
DESCANSO N       N/A     44  40  86 W12       29.99S
CAMPO            N/A     49  41  74 W13G20    29.99S

$$

ORANGE COUNTY AND THE LOS ANGELES BASIN

CITY           SKY/WX    TMP DP  RH WIND       PRES   REMARKS
JOHN WAYNE AP  PTCLDY    59  46  62 SW8       30.05R
LAGUNA BEACH     N/A     60  50  69 SW2       30.01S
LAKE FOREST FR   N/A     56  42  58 W5        29.95S
HUNTINGTON BCH   N/A     60  52  76 W7        30.06S
LOS ALAMITOS   PTCLDY    60  46  60 W9        30.03S
FULLERTON      CLEAR     62  43  49 W9        30.02S
LONG BEACH     CLEAR     61  44  53 W13G22    30.03S
L.A. AP        PTCLDY    60  51  72 W21       30.02S
L.A. DOWNTOWN  PTCLDY    64  47  53 W5        30.01S

$$

THE INLAND EMPIRE

CITY           SKY/WX    TMP DP  RH WIND       PRES   REMARKS
CORONA         CLEAR     58  43  57 W9        30.03R
CHINO          PTCLDY    58  43  57 SW13      30.03R
ONTARIO        PTCLDY    56  41  57 SW14G23   30.02R
SAN BERNARDINO PTCLDY    57  39  51 SW14      30.01S
RIVERSIDE AP   CLEAR     57  41  55 W10       30.01S
MORENO VALLEY    N/A     58  44  60 NW7       28.12S
MARCH ARB      CLEAR     55  39  55 W10       30.00S
HORSETHIEF CYN   N/A     56  33  41 NW3       30.03S
PERRIS           N/A     58  45  62 SW5       30.02S
HEMET EAST       N/A     54  37  52 SW9       30.07R
FRENCH VALLEY  FAIR      54  37  54 SW15      30.03S
TEMECULA         N/A     56  46  69 SW5       30.06R

$$

SAN BERNARDINO AND RIVERSIDE COUNTY MOUNTAINS

CITY           SKY/WX    TMP DP  RH WIND       PRES   REMARKS
BIG BEAR AP    PTCLDY    32  23  69 SW14G23   29.94R WCI  22
PINE COVE        N/A     33  32  95 NW3       29.95S

$$

SOUTHERN DESERT INCLUDING THE COACHELLA VALLEY

CITY           SKY/WX    TMP DP  RH WIND       PRES   REMARKS
PALM SPRINGS   CLEAR     69  38  32 SE8G21    29.85R
PALM DESERT      N/A     69  34  27 W7          N/A
THERMAL        CLEAR     70  36  28 NW12G23   29.85R
BLYTHE         CLEAR     74  38  27 W12       29.80S
EL CENTRO NAS  PTCLDY    69  35  28 W33G40    29.88R
YUMA AZ        CLOUDY    74  40  29 W10G21    29.82
MEXICALI       PTCLDY    72  32  23 W20       29.83S

$$

UPPER DESERT

CITY           SKY/WX    TMP DP  RH WIND       PRES   REMARKS
VICTORVILLE AP MOCLDY    48  28  46 W15G21    30.02R
HESPERIA         N/A     46  34  62 NW7       30.14R
PALMDALE       PTCLDY    49  33  54 W23       30.05R
LANCASTER      PTCLDY    49  33  54 W18G26    30.05S
EDWARDS AFB    PTCLDY    50  29  44 W23G30    30.00F
DAGGETT        CLEAR     54  26  34 W36G48    29.92S
29 PALMS N     PTCLDY    56  31  38 NW28G38   29.97R BLWGDUST
NEEDLES        PTCLDY    69  34  27 NW16      29.82R

$$

REGIONAL REPORTS

CITY           SKY/WX    TMP DP  RH WIND       PRES   REMARKS
SANTA BARBARA  CLEAR     59  43  55 W23G31    30.04S
SANDBERG       PTCLDY    39  31  72 NW17G29   30.05R WCI  30
LAS VEGAS NV   PTCLDY    62  20  19 W20G28    29.78S
PHOENIX AZ     CLOUDY    74  49  41 SW7       29.80F
TIJUANA        PTCLDY    55  41  58 W12       30.10S
ENSENADA NW      N/A     59  32  36 W10       30.05R

$$

OFFSHORE ISLANDS

CITY           SKY/WX    TMP DP  RH WIND       PRES   REMARKS
CATALINA ARPT  CLEAR     52  46  80 W14       30.05S
SAN CLEMENTE I PTCLDY    56  46  69 W26       30.09S
SAN NICOLAS IS CLEAR    N/A N/A N/A NW29G37   30.10R

$$

MARINE AND OFFSHORE BUOY REPORTS

STATION/POSITION SKY/WX   TEMP    WIND        PRES    VSBY  SWELL
                          AIR SEA DIR/SP/G                  HT/PER/DIR
                          (F)     (DEG/KT/KT) (MB)    (MI)  (FT/S/D)
TANNER BANKS               56 59  310/ 25/ 29 1019.8         10/320/15
S CLEMENTE BASIN           56 60  290/ 19/ 23 1018.7          7/290/15
SAN NICOLAS IS.               56                N/A           7/270/13
SO. S. ROSA ISLA           54 57  310/ 25/ 29 1019.8          7/270/14
W. S. BARBARA CH           54 56  320/ 23/ 29 1020.3          7/260/15
M. S. BARBARA CH                  280/ 21/ 27 1018.9R
S. MONICA BASIN            58 58  290/ 16/ 21 1017.1F         7/260/14
S PEDRO CHANNEL               59                N/A           7/270/14
CMP PENDLETON NS              60                N/A           3/240/14
OCEANSIDE OFFSHR              60                N/A           3/260/15
TORREY PINES OTR              60                N/A           5/270/14
POINT LOMA SOUTH              60                N/A           7/260/15

$$





USA.gov is the U.S. government's official web portal to all federal, state and local government web resources and services.